1589839231,2020-05-19 00:00,0.00,2.86,10.34,0.33,130.56,0.38,,,-38
1589839291,2020-05-19 00:01,0.00,2.73,12.02,0.33,109.04,0.35,,,-37
1589839351,2020-05-19 00:02,0.00,3.50,8.21,0.33,272.85,0.52,,,-36
1589839411,2020-05-19 00:03,0.00,3.07,9.40,0.33,169.03,0.42,,,-37
1589839471,2020-05-19 00:04,0.00,2.33,14.03,0.33,60.78,0.28,,,-37
1589839531,2020-05-19 00:05,0.00,3.14,9.78,0.33,183.68,0.44,,,-37
1589839591,2020-05-19 00:06,0.00,2.20,14.85,0.24,49.17,0.25,,,-37
1589839651,2020-05-19 00:07,0.00,3.00,10.34,0.33,155.32,0.41,,,-38
1589839711,2020-05-19 00:08,0.00,2.33,13.78,0.24,60.78,0.28,,,-37
1589839772,2020-05-19 00:09,0.00,2.53,13.06,0.33,82.13,0.31,,,-37
1589839832,2020-05-19 00:10,0.00,2.20,14.85,0.24,49.17,0.25,,,-38
1589839892,2020-05-19 00:11,0.00,2.14,15.44,0.24,44.07,0.24,,,-37
1589839952,2020-05-19 00:12,0.00,2.59,12.22,0.24,90.44,0.33,,,-37
1589840012,2020-05-19 00:13,0.00,2.86,10.34,0.33,130.56,0.38,,,-37
1589840072,2020-05-19 00:14,0.00,3.28,8.40,0.33,216.01,0.47,,,-37
1589840132,2020-05-19 00:15,0.00,2.80,9.78,0.33,119.42,0.37,,,-36
1589840192,2020-05-19 00:16,0.00,2.80,10.05,0.33,119.42,0.37,,,-36
1589840252,2020-05-19 00:17,0.00,3.07,8.71,0.33,169.03,0.42,,,-36
1589840312,2020-05-19 00:18,0.00,3.07,8.61,0.33,169.03,0.42,,,-37
1589840372,2020-05-19 00:19,0.00,2.80,9.65,0.33,119.42,0.37,,,-36
1589840433,2020-05-19 00:20,0.00,2.80,9.52,0.33,119.42,0.37,,,-37
1589840493,2020-05-19 00:21,0.00,2.73,9.78,0.33,109.04,0.35,,,-37
1589840553,2020-05-19 00:22,0.00,3.28,7.84,0.44,216.01,0.47,,,-38
1589840613,2020-05-19 00:23,0.00,3.28,7.58,0.44,216.01,0.47,,,-37
1589840673,2020-05-19 00:24,0.00,4.01,5.42,0.44,452.49,0.64,,,-36
1589840733,2020-05-19 00:25,0.00,4.01,5.03,0.44,452.49,0.64,,,-36
1589840793,2020-05-19 00:26,0.00,3.71,5.51,0.57,341.05,0.57,,,-37
1589840853,2020-05-19 00:27,0.00,3.50,5.97,0.57,272.85,0.52,,,-36
1589840914,2020-05-19 00:28,0.00,3.42,6.50,0.57,252.72,0.50,,,-36
1589840974,2020-05-19 00:29,0.00,3.14,7.19,0.44,183.68,0.44,,,-37
1589841034,2020-05-19 00:30,0.00,2.86,8.50,0.44,130.56,0.38,,,-36
1589841094,2020-05-19 00:31,0.00,3.07,8.02,0.44,169.03,0.42,,,-37
1589841154,2020-05-19 00:32,0.00,3.14,7.42,0.44,183.68,0.44,,,-36
1589841214,2020-05-19 00:33,0.00,3.42,6.43,0.57,252.72,0.50,,,-37
1589841274,2020-05-19 00:34,0.00,3.71,5.66,0.57,341.05,0.57,,,-38
1589841334,2020-05-19 00:35,0.00,3.50,5.76,0.57,272.85,0.52,,,-34
1589841394,2020-05-19 00:36,0.00,2.86,7.75,0.57,130.56,0.38,,,-35
1589841454,2020-05-19 00:37,0.00,2.59,9.28,0.44,90.44,0.33,,,-35
1589841514,2020-05-19 00:38,0.00,2.66,9.16,0.44,99.40,0.34,,,-36
1589841575,2020-05-19 00:39,0.00,2.59,9.65,0.44,90.44,0.33,,,-36
1589841635,2020-05-19 00:40,0.00,2.59,9.65,0.44,90.44,0.33,,,-36
1589841695,2020-05-19 00:41,0.00,2.66,9.28,0.44,99.40,0.34,,,-35
1589841755,2020-05-19 00:42,0.00,2.59,9.28,0.44,90.44,0.33,,,-35
1589841815,2020-05-19 00:43,0.00,2.59,9.52,0.44,90.44,0.33,,,-36
1589841875,2020-05-19 00:44,0.00,2.80,8.30,0.44,119.42,0.37,,,-35
1589841935,2020-05-19 00:45,0.00,2.73,8.61,0.44,109.04,0.35,,,-36
1589841995,2020-05-19 00:46,0.00,3.28,6.56,0.57,216.01,0.47,,,-36
1589842055,2020-05-19 00:47,0.00,3.71,5.07,0.57,341.05,0.57,,,-36
1589842115,2020-05-19 00:48,0.00,3.14,5.86,0.57,183.68,0.44,,,-36
1589842175,2020-05-19 00:49,0.00,3.14,6.02,0.57,183.68,0.44,,,-35
1589842235,2020-05-19 00:50,0.00,2.86,7.04,0.57,130.56,0.38,,,-35
1589842295,2020-05-19 00:51,0.00,3.14,6.43,0.57,183.68,0.44,,,-36
1589842355,2020-05-19 00:52,0.00,3.07,6.43,0.57,169.03,0.42,,,-36
1589842416,2020-05-19 00:53,0.00,3.14,6.08,0.57,183.68,0.44,,,-35
1589842476,2020-05-19 00:54,0.00,3.07,6.19,0.57,169.03,0.42,,,-36
1589842536,2020-05-19 00:55,0.00,3.00,6.25,0.57,155.32,0.41,,,-36
1589842596,2020-05-19 00:56,0.00,2.93,6.25,0.72,142.52,0.40,,,-35
1589842656,2020-05-19 00:57,0.00,3.00,6.19,0.72,155.32,0.41,,,-35
1589842716,2020-05-19 00:58,0.00,3.14,5.76,0.72,183.68,0.44,,,-34
1589842776,2020-05-19 00:59,0.00,3.07,5.76,0.72,169.03,0.42,,,-35
1589842836,2020-05-19 01:00,0.00,3.14,5.61,0.72,183.68,0.44,,,-35
1589842896,2020-05-19 01:01,0.00,3.28,5.15,0.72,216.01,0.47,,,-36
1589842956,2020-05-19 01:02,0.00,3.14,5.28,0.72,183.68,0.44,,,-36
1589843016,2020-05-19 01:03,0.00,3.14,5.28,0.72,183.68,0.44,,,-35
1589843077,2020-05-19 01:04,0.00,3.28,5.07,0.72,216.01,0.47,,,-35
1589843137,2020-05-19 01:05,0.00,3.42,4.76,0.72,252.72,0.50,,,-35
1589843197,2020-05-19 01:06,0.01,3.57,4.32,0.88,294.25,0.53,,,-36
1589843257,2020-05-19 01:07,0.01,3.00,5.28,0.88,155.32,0.41,,,-36
1589843317,2020-05-19 01:08,0.01,3.21,5.07,0.88,199.32,0.45,,,-35
1589843377,2020-05-19 01:09,0.01,3.35,4.72,0.88,233.79,0.48,,,-34
1589843437,2020-05-19 01:10,0.00,2.66,6.31,0.72,99.40,0.34,,,-34
1589843497,2020-05-19 01:11,0.00,2.07,9.78,0.57,39.39,0.23,,,-35
1589843557,2020-05-19 01:12,0.00,1.64,14.03,0.57,16.50,0.16,,,-35
1589843617,2020-05-19 01:13,0.00,1.46,17.54,0.44,10.74,0.14,,,-36
1589843677,2020-05-19 01:14,0.00,1.58,16.43,0.33,14.36,0.15,,,-35
1589843737,2020-05-19 01:15,0.00,2.07,11.64,0.33,39.39,0.23,,,-35
1589843797,2020-05-19 01:16,0.00,1.70,14.57,0.33,18.88,0.17,,,-37
1589843857,2020-05-19 01:17,0.00,1.82,13.78,0.33,24.44,0.19,,,-37
1589843917,2020-05-19 01:18,0.00,1.46,18.36,0.33,10.74,0.14,,,-38
1589843977,2020-05-19 01:19,0.00,1.28,20.78,0.24,6.70,0.11,,,-37
1589844037,2020-05-19 01:20,0.00,1.34,21.34,0.24,7.88,0.12,,,-37
1589844097,2020-05-19 01:21,0.00,1.46,18.36,0.24,10.74,0.14,,,-37
1589844158,2020-05-19 01:22,0.00,1.34,21.34,0.24,7.88,0.12,,,-37
1589844218,2020-05-19 01:23,0.00,1.40,20.78,0.24,9.23,0.13,,,-37
1589844278,2020-05-19 01:24,0.00,1.52,18.36,0.24,12.45,0.14,,,-36
1589844338,2020-05-19 01:25,0.00,1.64,17.15,0.24,16.50,0.16,,,-37
1589844398,2020-05-19 01:26,0.00,1.64,16.78,0.24,16.50,0.16,,,-37
1589844458,2020-05-19 01:27,0.00,1.58,17.94,0.24,14.36,0.15,,,-36
1589844518,2020-05-19 01:28,0.00,1.52,18.80,0.24,12.45,0.14,,,-36
1589844578,2020-05-19 01:29,0.00,2.01,12.84,0.24,35.12,0.22,,,-37
1589844638,2020-05-19 01:30,0.00,2.20,11.29,0.24,49.17,0.25,,,-37
1589844698,2020-05-19 01:31,0.00,2.01,12.42,0.24,35.12,0.22,,,-36
1589844758,2020-05-19 01:32,0.00,2.14,11.29,0.24,44.07,0.24,,,-37
1589844818,2020-05-19 01:33,0.00,2.26,10.64,0.33,54.73,0.27,,,-37
1589844878,2020-05-19 01:34,0.00,2.46,9.04,0.33,74.44,0.30,,,-37
1589844938,2020-05-19 01:35,0.00,2.59,8.40,0.33,90.44,0.33,,,-36
1589844998,2020-05-19 01:36,0.00,2.53,8.30,0.33,82.13,0.31,,,-36
1589845058,2020-05-19 01:37,0.00,2.20,10.05,0.33,49.17,0.25,,,-37
1589845118,2020-05-19 01:38,0.00,2.53,8.71,0.44,82.13,0.31,,,-38
1589845179,2020-05-19 01:39,0.00,2.20,10.05,0.33,49.17,0.25,,,-38
1589845239,2020-05-19 01:40,0.00,1.88,12.63,0.33,27.66,0.20,,,-37
1589845299,2020-05-19 01:41,0.00,1.46,18.36,0.24,10.74,0.14,,,-38
1589845359,2020-05-19 01:42,0.00,1.40,19.74,0.24,9.23,0.13,,,-37
1589845419,2020-05-19 01:43,0.00,1.40,20.25,0.24,9.23,0.13,,,-38
1589845479,2020-05-19 01:44,0.00,1.52,18.36,0.24,12.45,0.14,,,-37
1589845539,2020-05-19 01:45,0.00,1.46,18.80,0.24,10.74,0.14,,,-37
1589845599,2020-05-19 01:46,0.00,1.34,21.93,0.24,7.88,0.12,,,-36
1589845659,2020-05-19 01:47,0.00,1.28,22.55,0.24,6.70,0.11,,,-37
1589845719,2020-05-19 01:48,0.00,1.28,21.93,0.24,6.70,0.11,,,-37
1589845779,2020-05-19 01:49,0.00,1.28,23.20,0.16,6.70,0.11,,,-37
1589845840,2020-05-19 01:50,0.00,1.17,25.40,0.16,4.74,0.10,,,-37
1589845900,2020-05-19 01:51,0.00,1.23,24.63,0.16,5.65,0.10,,,-35
1589845960,2020-05-19 01:52,0.00,1.23,24.63,0.24,5.65,0.10,,,-35
1589846020,2020-05-19 01:53,0.00,1.11,27.11,0.16,3.95,0.09,,,-35
1589846080,2020-05-19 01:54,0.00,1.23,24.63,0.16,5.65,0.10,,,-36
1589846140,2020-05-19 01:55,0.00,1.06,29.05,0.16,3.27,0.08,,,-35
1589846200,2020-05-19 01:56,0.00,1.11,28.05,0.16,3.95,0.09,,,-35
1589846260,2020-05-19 01:57,0.00,1.17,25.40,0.16,4.74,0.10,,,-35
1589846320,2020-05-19 01:58,0.00,1.17,26.23,0.16,4.74,0.10,,,-36
1589846380,2020-05-19 01:59,0.00,1.17,26.23,0.16,4.74,0.10,,,-37
1589846440,2020-05-19 02:00,0.00,1.17,26.23,0.16,4.74,0.10,,,-37
1589846500,2020-05-19 02:01,0.00,1.17,26.23,0.16,4.74,0.10,,,-37
1589846560,2020-05-19 02:02,0.00,1.17,27.11,0.16,4.74,0.10,,,-37
1589846620,2020-05-19 02:03,0.00,1.23,24.63,0.16,5.65,0.10,,,-38
1589846680,2020-05-19 02:04,0.00,1.11,28.05,0.16,3.95,0.09,,,-38
1589846740,2020-05-19 02:05,0.00,1.23,24.63,0.16,5.65,0.10,,,-35
1589846800,2020-05-19 02:06,0.00,1.17,26.23,0.16,4.74,0.10,,,-34
1589846861,2020-05-19 02:07,0.00,1.06,30.13,0.16,3.27,0.08,,,-36
1589846921,2020-05-19 02:08,0.00,1.11,29.05,0.16,3.95,0.09,,,-37
1589846981,2020-05-19 02:09,0.00,0.95,33.87,0.16,2.18,0.07,,,-37
1589847041,2020-05-19 02:10,0.00,0.89,35.33,0.16,1.75,0.06,,,-37
1589847101,2020-05-19 02:11,0.00,0.84,40.53,0.16,1.40,0.06,,,-36
1589847161,2020-05-19 02:12,0.00,0.84,38.64,0.10,1.40,0.06,,,-36
1589847221,2020-05-19 02:13,0.00,0.84,38.64,0.16,1.40,0.06,,,-37
1589847281,2020-05-19 02:14,0.00,0.84,38.64,0.10,1.40,0.06,,,-37
1589847341,2020-05-19 02:15,0.00,0.84,38.64,0.10,1.40,0.06,,,-37
1589847402,2020-05-19 02:16,0.00,0.89,36.91,0.10,1.75,0.06,,,-37
1589847462,2020-05-19 02:17,0.00,0.84,40.53,0.16,1.40,0.06,,,-37
1589847522,2020-05-19 02:18,0.00,0.74,47.48,0.16,0.85,0.05,,,-37
1589847582,2020-05-19 02:19,0.00,0.79,44.92,0.10,1.10,0.05,,,-37
1589847642,2020-05-19 02:20,0.00,0.74,44.92,0.16,0.85,0.05,,,-37
1589847702,2020-05-19 02:21,0.00,0.79,42.62,0.10,1.10,0.05,,,-34
1589847762,2020-05-19 02:22,0.00,0.84,40.53,0.10,1.40,0.06,,,-35
1589847822,2020-05-19 02:23,0.00,0.79,42.62,0.10,1.10,0.05,,,-33
1589847882,2020-05-19 02:24,0.00,0.74,44.92,0.10,0.85,0.05,,,-34
1589847942,2020-05-19 02:25,0.00,0.74,44.92,0.10,0.85,0.05,,,-35
1589848002,2020-05-19 02:26,0.00,0.74,44.92,0.10,0.85,0.05,,,-34
1589848062,2020-05-19 02:27,0.00,0.74,47.48,0.10,0.85,0.05,,,-35
1589848122,2020-05-19 02:28,0.00,0.68,50.35,0.10,0.65,0.04,,,-35
1589848182,2020-05-19 02:29,0.00,0.74,47.48,0.10,0.85,0.05,,,-38
1589848242,2020-05-19 02:30,0.00,0.79,44.92,0.10,1.10,0.05,,,-36
1589848302,2020-05-19 02:31,0.00,0.74,44.92,0.10,0.85,0.05,,,-37
1589848362,2020-05-19 02:32,0.00,0.74,44.92,0.10,0.85,0.05,,,-37
1589848422,2020-05-19 02:33,0.00,0.79,42.62,0.10,1.10,0.05,,,-37
1589848483,2020-05-19 02:34,0.00,0.79,44.92,0.10,1.10,0.05,,,-36
1589848543,2020-05-19 02:35,0.00,0.79,44.92,0.10,1.10,0.05,,,-37
1589848603,2020-05-19 02:36,0.00,0.79,44.92,0.10,1.10,0.05,,,-38
1589848663,2020-05-19 02:37,0.00,0.84,42.62,0.10,1.40,0.06,,,-37
1589848723,2020-05-19 02:38,0.00,0.79,44.92,0.10,1.10,0.05,,,-37
1589848783,2020-05-19 02:39,0.00,0.79,44.92,0.10,1.10,0.05,,,-37
1589848843,2020-05-19 02:40,0.00,0.79,44.92,0.10,1.10,0.05,,,-37
1589848903,2020-05-19 02:41,0.00,0.79,42.62,0.10,1.10,0.05,,,-36
1589848963,2020-05-19 02:42,0.00,0.84,42.62,0.10,1.40,0.06,,,-36
1589849023,2020-05-19 02:43,0.00,0.79,44.92,0.10,1.10,0.05,,,-36
1589849083,2020-05-19 02:44,0.00,0.79,44.92,0.10,1.10,0.05,,,-35
1589849143,2020-05-19 02:45,0.00,0.79,42.62,0.10,1.10,0.05,,,-37
1589849203,2020-05-19 02:46,0.00,0.79,44.92,0.10,1.10,0.05,,,-37
1589849263,2020-05-19 02:47,0.00,0.84,42.62,0.10,1.40,0.06,,,-37
1589849324,2020-05-19 02:48,0.00,0.89,38.64,0.10,1.75,0.06,,,-36
1589849384,2020-05-19 02:49,0.00,0.84,40.53,0.10,1.40,0.06,,,-37
1589849444,2020-05-19 02:50,0.00,0.84,40.53,0.10,1.40,0.06,,,-37
1589849504,2020-05-19 02:51,0.00,0.84,40.53,0.10,1.40,0.06,,,-37
1589849564,2020-05-19 02:52,0.00,0.89,38.64,0.10,1.75,0.06,,,-36
1589849624,2020-05-19 02:53,0.00,0.89,40.53,0.10,1.75,0.06,,,-37
1589849684,2020-05-19 02:54,0.00,0.95,36.91,0.10,2.18,0.07,,,-36
1589849744,2020-05-19 02:55,0.00,0.95,36.91,0.10,2.18,0.07,,,-36
1589849804,2020-05-19 02:56,0.00,0.95,36.91,0.10,2.18,0.07,,,-37
1589849865,2020-05-19 02:57,0.00,0.95,36.91,0.10,2.18,0.07,,,-36
1589849925,2020-05-19 02:58,0.00,0.95,38.64,0.10,2.18,0.07,,,-37
1589849985,2020-05-19 02:59,0.00,0.89,38.64,0.10,1.75,0.06,,,-36
1589850045,2020-05-19 03:00,0.00,0.84,42.62,0.10,1.40,0.06,,,-36
1589850105,2020-05-19 03:01,0.00,0.79,44.92,0.10,1.10,0.05,,,-36
1589850165,2020-05-19 03:02,0.00,0.84,42.62,0.10,1.40,0.06,,,-37
1589850225,2020-05-19 03:03,0.00,0.84,42.62,0.16,1.40,0.06,,,-36
1589850285,2020-05-19 03:04,0.00,0.84,40.53,0.16,1.40,0.06,,,-36
1589850345,2020-05-19 03:05,0.00,0.84,40.53,0.10,1.40,0.06,,,-36
1589850405,2020-05-19 03:06,0.00,0.89,38.64,0.10,1.75,0.06,,,-37
1589850465,2020-05-19 03:07,0.00,0.84,40.53,0.10,1.40,0.06,,,-37
1589850526,2020-05-19 03:08,0.00,0.89,38.64,0.10,1.75,0.06,,,-36
1589850586,2020-05-19 03:09,0.00,0.89,38.64,0.10,1.75,0.06,,,-37
1589850646,2020-05-19 03:10,0.00,0.89,38.64,0.10,1.75,0.06,,,-37
1589850706,2020-05-19 03:11,0.00,1.00,35.33,0.10,2.68,0.08,,,-37
1589850766,2020-05-19 03:12,0.00,0.89,38.64,0.10,1.75,0.06,,,-36
1589850826,2020-05-19 03:13,0.00,0.89,40.53,0.10,1.75,0.06,,,-36
1589850886,2020-05-19 03:14,0.00,0.95,36.91,0.10,2.18,0.07,,,-36
1589850946,2020-05-19 03:15,0.00,0.95,36.91,0.16,2.18,0.07,,,-36
1589851006,2020-05-19 03:16,0.00,0.95,35.33,0.10,2.18,0.07,,,-37
1589851067,2020-05-19 03:17,0.00,0.95,36.91,0.10,2.18,0.07,,,-37
1589851127,2020-05-19 03:18,0.00,0.89,38.64,0.16,1.75,0.06,,,-37
1589851187,2020-05-19 03:19,0.00,0.89,38.64,0.10,1.75,0.06,,,-37
1589851247,2020-05-19 03:20,0.00,0.89,40.53,0.10,1.75,0.06,,,-37
1589851307,2020-05-19 03:21,0.00,0.89,40.53,0.10,1.75,0.06,,,-37
1589851367,2020-05-19 03:22,0.00,0.89,40.53,0.10,1.75,0.06,,,-36
1589851427,2020-05-19 03:23,0.00,0.89,38.64,0.10,1.75,0.06,,,-36
1589851487,2020-05-19 03:24,0.00,0.84,40.53,0.16,1.40,0.06,,,-36
1589851547,2020-05-19 03:25,0.00,0.84,40.53,0.10,1.40,0.06,,,-36
1589851608,2020-05-19 03:26,0.00,0.89,40.53,0.10,1.75,0.06,,,-37
1589851668,2020-05-19 03:27,0.00,0.89,38.64,0.10,1.75,0.06,,,-36
1589851728,2020-05-19 03:28,0.00,0.89,38.64,0.10,1.75,0.06,,,-37
1589851788,2020-05-19 03:29,0.00,0.89,38.64,0.10,1.75,0.06,,,-37
1589851848,2020-05-19 03:30,0.00,0.95,36.91,0.10,2.18,0.07,,,-37
1589851908,2020-05-19 03:31,0.00,1.00,35.33,0.10,2.68,0.08,,,-37
1589851968,2020-05-19 03:32,0.00,1.00,33.87,0.10,2.68,0.08,,,-36
1589852028,2020-05-19 03:33,0.00,1.00,35.33,0.10,2.68,0.08,,,-36
1589852088,2020-05-19 03:34,0.00,0.95,36.91,0.10,2.18,0.07,,,-36
1589852148,2020-05-19 03:35,0.00,1.00,35.33,0.10,2.68,0.08,,,-37
1589852208,2020-05-19 03:36,0.00,1.00,35.33,0.10,2.68,0.08,,,-37
1589852268,2020-05-19 03:37,0.00,0.95,36.91,0.10,2.18,0.07,,,-36
1589852328,2020-05-19 03:38,0.00,0.95,36.91,0.16,2.18,0.07,,,-37
1589852388,2020-05-19 03:39,0.00,0.89,38.64,0.10,1.75,0.06,,,-36
1589852448,2020-05-19 03:40,0.00,0.89,38.64,0.10,1.75,0.06,,,-37
1589852508,2020-05-19 03:41,0.00,1.00,35.33,0.10,2.68,0.08,,,-36
1589852568,2020-05-19 03:42,0.00,1.00,35.33,0.10,2.68,0.08,,,-37
1589852629,2020-05-19 03:43,0.00,0.95,36.91,0.10,2.18,0.07,,,-36
1589852689,2020-05-19 03:44,0.00,0.95,35.33,0.10,2.18,0.07,,,-36
1589852749,2020-05-19 03:45,0.00,0.95,36.91,0.10,2.18,0.07,,,-37
1589852809,2020-05-19 03:46,0.00,1.00,35.33,0.10,2.68,0.08,,,-37
1589852869,2020-05-19 03:47,0.00,1.00,35.33,0.10,2.68,0.08,,,-37
1589852929,2020-05-19 03:48,0.00,1.00,35.33,0.10,2.68,0.08,,,-37
1589852989,2020-05-19 03:49,0.00,0.95,35.33,0.10,2.18,0.07,,,-37
1589853049,2020-05-19 03:50,0.00,1.00,35.33,0.10,2.68,0.08,,,-37
1589853109,2020-05-19 03:51,0.00,1.00,35.33,0.10,2.68,0.08,,,-37
1589853169,2020-05-19 03:52,0.00,1.00,35.33,0.10,2.68,0.08,,,-37
1589853229,2020-05-19 03:53,0.00,1.06,32.53,0.10,3.27,0.08,,,-37
1589853289,2020-05-19 03:54,0.00,1.06,33.87,0.16,3.27,0.08,,,-37
1589853349,2020-05-19 03:55,0.00,1.00,35.33,0.10,2.68,0.08,,,-37
1589853409,2020-05-19 03:56,0.00,1.00,35.33,0.10,2.68,0.08,,,-37
1589853469,2020-05-19 03:57,0.00,1.00,35.33,0.10,2.68,0.08,,,-36
1589853529,2020-05-19 03:58,0.00,1.00,35.33,0.10,2.68,0.08,,,-37
1589853589,2020-05-19 03:59,0.00,1.00,35.33,0.16,2.68,0.08,,,-36
1589853650,2020-05-19 04:00,0.00,1.00,36.91,0.10,2.68,0.08,,,-37
1589853710,2020-05-19 04:01,0.00,1.00,35.33,0.10,2.68,0.08,,,-37
1589853770,2020-05-19 04:02,0.00,1.00,35.33,0.10,2.68,0.08,,,-37
1589853830,2020-05-19 04:03,0.00,1.00,35.33,0.10,2.68,0.08,,,-36
1589853890,2020-05-19 04:04,0.00,0.95,35.33,0.10,2.18,0.07,,,-37
1589853950,2020-05-19 04:05,0.00,1.06,33.87,0.10,3.27,0.08,,,-36
1589854010,2020-05-19 04:06,0.00,1.06,32.53,0.10,3.27,0.08,,,-36
1589854070,2020-05-19 04:07,0.00,1.06,33.87,0.10,3.27,0.08,,,-36
1589854130,2020-05-19 04:08,0.00,1.11,31.28,0.16,3.95,0.09,,,-37
1589854190,2020-05-19 04:09,0.00,1.11,31.28,0.16,3.95,0.09,,,-37
1589854250,2020-05-19 04:10,0.00,1.11,31.28,0.10,3.95,0.09,,,-36
1589854310,2020-05-19 04:11,0.00,1.11,31.28,0.16,3.95,0.09,,,-36
1589854370,2020-05-19 04:12,0.00,1.06,32.53,0.10,3.27,0.08,,,-36
1589854430,2020-05-19 04:13,0.00,1.06,33.87,0.10,3.27,0.08,,,-36
1589854491,2020-05-19 04:14,0.00,1.06,32.53,0.10,3.27,0.08,,,-36
1589854551,2020-05-19 04:15,0.00,1.06,31.28,0.16,3.27,0.08,,,-36
1589854611,2020-05-19 04:16,0.00,1.11,30.13,0.16,3.95,0.09,,,-36
1589854671,2020-05-19 04:17,0.00,1.11,31.28,0.16,3.95,0.09,,,-36
1589854731,2020-05-19 04:18,0.00,1.06,32.53,0.10,3.27,0.08,,,-36
1589854791,2020-05-19 04:19,0.00,1.00,33.87,0.10,2.68,0.08,,,-37
1589854851,2020-05-19 04:20,0.00,1.00,33.87,0.10,2.68,0.08,,,-36
1589854912,2020-05-19 04:21,0.00,1.00,35.33,0.10,2.68,0.08,,,-36
1589854972,2020-05-19 04:22,0.00,0.95,36.91,0.10,2.18,0.07,,,-36
1589855032,2020-05-19 04:23,0.00,1.00,35.33,0.16,2.68,0.08,,,-36
1589855092,2020-05-19 04:24,0.00,1.00,33.87,0.10,2.68,0.08,,,-37
1589855152,2020-05-19 04:25,0.00,1.00,35.33,0.10,2.68,0.08,,,-37
1589855212,2020-05-19 04:26,0.00,1.00,33.87,0.10,2.68,0.08,,,-36
1589855272,2020-05-19 04:27,0.00,1.00,33.87,0.10,2.68,0.08,,,-37
1589855332,2020-05-19 04:28,0.00,1.00,33.87,0.10,2.68,0.08,,,-36
1589855392,2020-05-19 04:29,0.00,1.00,35.33,0.10,2.68,0.08,,,-37
1589855452,2020-05-19 04:30,0.00,1.06,32.53,0.10,3.27,0.08,,,-37
1589855512,2020-05-19 04:31,0.00,1.06,33.87,0.10,3.27,0.08,,,-35
1589855572,2020-05-19 04:32,0.00,1.00,33.87,0.10,2.68,0.08,,,-37
1589855632,2020-05-19 04:33,0.00,1.00,33.87,0.10,2.68,0.08,,,-37
1589855692,2020-05-19 04:34,0.00,1.00,33.87,0.16,2.68,0.08,,,-37
1589855752,2020-05-19 04:35,0.00,1.06,32.53,0.10,3.27,0.08,,,-37
1589855812,2020-05-19 04:36,0.00,1.06,32.53,0.16,3.27,0.08,,,-37
1589855872,2020-05-19 04:37,0.00,1.06,31.28,0.16,3.27,0.08,,,-36
1589855932,2020-05-19 04:38,0.00,1.06,32.53,0.10,3.27,0.08,,,-36
1589855993,2020-05-19 04:39,0.00,1.06,32.53,0.10,3.27,0.08,,,-36
1589856053,2020-05-19 04:40,0.00,1.06,31.28,0.16,3.27,0.08,,,-36
1589856113,2020-05-19 04:41,0.00,1.11,31.28,0.10,3.95,0.09,,,-36
1589856173,2020-05-19 04:42,0.00,1.06,32.53,0.10,3.27,0.08,,,-37
1589856233,2020-05-19 04:43,0.00,1.06,33.87,0.10,3.27,0.08,,,-37
1589856293,2020-05-19 04:44,0.00,1.06,32.53,0.10,3.27,0.08,,,-36
1589856353,2020-05-19 04:45,0.00,1.00,33.87,0.10,2.68,0.08,,,-37
1589856413,2020-05-19 04:46,0.00,1.00,33.87,0.10,2.68,0.08,,,-37
1589856473,2020-05-19 04:47,0.00,0.95,35.33,0.10,2.18,0.07,,,-37
1589856533,2020-05-19 04:48,0.00,0.95,35.33,0.10,2.18,0.07,,,-35
1589856593,2020-05-19 04:49,0.00,0.95,35.33,0.10,2.18,0.07,,,-37
1589856653,2020-05-19 04:50,0.00,0.95,35.33,0.10,2.18,0.07,,,-36
1589856713,2020-05-19 04:51,0.00,1.00,35.33,0.10,2.68,0.08,,,-36
1589856773,2020-05-19 04:52,0.00,0.95,36.91,0.10,2.18,0.07,,,-36
1589856833,2020-05-19 04:53,0.00,0.89,36.91,0.10,2.18,0.07,,,-37
1589856893,2020-05-19 04:54,0.00,0.95,35.33,0.10,2.18,0.07,,,-37
1589856953,2020-05-19 04:55,0.00,0.95,35.33,0.10,2.18,0.07,,,-36
1589857013,2020-05-19 04:56,0.00,0.89,36.91,0.10,1.75,0.06,,,-37
1589857073,2020-05-19 04:57,0.00,0.89,36.91,0.10,1.75,0.06,,,-37
1589857133,2020-05-19 04:58,0.00,0.95,35.33,0.10,2.18,0.07,,,-37
1589857193,2020-05-19 04:59,0.00,0.89,36.91,0.10,1.75,0.06,,,-37
1589857253,2020-05-19 05:00,0.00,0.84,40.53,0.10,1.40,0.06,,,-36
1589857313,2020-05-19 05:01,0.00,0.89,38.64,0.10,1.75,0.06,,,-35
1589857374,2020-05-19 05:02,0.00,0.89,36.91,0.10,1.75,0.06,,,-36
1589857434,2020-05-19 05:03,0.00,0.95,36.91,0.10,2.18,0.07,,,-37
1589857494,2020-05-19 05:04,0.00,0.95,36.91,0.10,2.18,0.07,,,-36
1589857554,2020-05-19 05:05,0.00,0.95,35.33,0.10,2.18,0.07,,,-37
1589857614,2020-05-19 05:06,0.00,0.89,36.91,0.10,1.75,0.06,,,-36
1589857674,2020-05-19 05:07,0.00,1.00,35.33,0.10,2.68,0.08,,,-37
1589857734,2020-05-19 05:08,0.00,1.06,32.53,0.10,3.27,0.08,,,-36
1589857794,2020-05-19 05:09,0.00,1.06,31.28,0.10,3.27,0.08,,,-36
1589857854,2020-05-19 05:10,0.00,1.06,31.28,0.10,3.27,0.08,,,-37
1589857914,2020-05-19 05:11,0.00,1.11,30.13,0.10,3.95,0.09,,,-36
1589857974,2020-05-19 05:12,0.00,1.00,33.87,0.10,2.68,0.08,,,-36
1589858034,2020-05-19 05:13,0.00,1.00,33.87,0.10,2.68,0.08,,,-37
1589858094,2020-05-19 05:14,0.00,1.00,33.87,0.10,2.68,0.08,,,-36
1589858154,2020-05-19 05:15,0.00,0.95,33.87,0.10,2.18,0.07,,,-36
1589858214,2020-05-19 05:16,0.00,0.95,35.33,0.10,2.18,0.07,,,-35
1589858274,2020-05-19 05:17,0.00,0.95,36.91,0.10,2.18,0.07,,,-36
1589858334,2020-05-19 05:18,0.00,0.89,36.91,0.10,1.75,0.06,,,-36
1589858394,2020-05-19 05:19,0.00,0.95,35.33,0.16,2.18,0.07,,,-35
1589858454,2020-05-19 05:20,0.00,0.95,33.87,0.10,2.18,0.07,,,-36
1589858515,2020-05-19 05:21,0.00,0.95,33.87,0.10,2.18,0.07,,,-37
1589858575,2020-05-19 05:22,0.00,0.95,35.33,0.10,2.18,0.07,,,-37
1589858635,2020-05-19 05:23,0.00,0.95,33.87,0.10,2.18,0.07,,,-36
1589858695,2020-05-19 05:24,0.00,1.00,32.53,0.16,2.68,0.08,,,-37
1589858755,2020-05-19 05:25,0.00,0.95,35.33,0.10,2.18,0.07,,,-36
1589858815,2020-05-19 05:26,0.00,1.00,33.87,0.10,2.68,0.08,,,-37
1589858875,2020-05-19 05:27,0.00,0.89,36.91,0.10,1.75,0.06,,,-36
1589858935,2020-05-19 05:28,0.00,0.89,36.91,0.10,1.75,0.06,,,-36
1589858995,2020-05-19 05:29,0.00,0.89,36.91,0.10,1.75,0.06,,,-35
1589859055,2020-05-19 05:30,0.00,0.89,36.91,0.10,1.75,0.06,,,-37
1589859115,2020-05-19 05:31,0.00,0.95,35.33,0.10,2.18,0.07,,,-35
1589859175,2020-05-19 05:32,0.00,0.95,33.87,0.10,2.18,0.07,,,-37
1589859235,2020-05-19 05:33,0.00,0.89,36.91,0.10,1.75,0.06,,,-37
1589859295,2020-05-19 05:34,0.00,0.89,36.91,0.10,1.75,0.06,,,-36
1589859355,2020-05-19 05:35,0.00,0.89,36.91,0.10,1.75,0.06,,,-36
1589859416,2020-05-19 05:36,0.00,0.89,35.33,0.10,1.75,0.06,,,-36
1589859476,2020-05-19 05:37,0.00,1.00,32.53,0.10,2.68,0.08,,,-36
1589859536,2020-05-19 05:38,0.00,0.89,36.91,0.10,1.75,0.06,,,-36
1589859596,2020-05-19 05:39,0.00,0.89,36.91,0.10,1.75,0.06,,,-36
1589859656,2020-05-19 05:40,0.00,0.89,36.91,0.10,1.75,0.06,,,-35
1589859716,2020-05-19 05:41,0.00,0.95,33.87,0.16,2.18,0.07,,,-37
1589859776,2020-05-19 05:42,0.00,0.89,35.33,0.10,1.75,0.06,,,-37
1589859836,2020-05-19 05:43,0.00,0.84,38.64,0.10,1.40,0.06,,,-36
1589859896,2020-05-19 05:44,0.00,0.89,36.91,0.10,1.75,0.06,,,-36
1589859956,2020-05-19 05:45,0.00,0.89,36.91,0.10,1.75,0.06,,,-36
1589860016,2020-05-19 05:46,0.00,0.89,36.91,0.10,1.75,0.06,,,-36
1589860076,2020-05-19 05:47,0.00,0.84,38.64,0.10,1.40,0.06,,,-37
1589860136,2020-05-19 05:48,0.00,0.89,35.33,0.10,1.75,0.06,,,-37
1589860196,2020-05-19 05:49,0.00,0.89,36.91,0.10,1.75,0.06,,,-36
1589860256,2020-05-19 05:50,0.00,0.84,38.64,0.10,1.40,0.06,,,-35
1589860316,2020-05-19 05:51,0.00,0.89,36.91,0.10,1.75,0.06,,,-36
1589860376,2020-05-19 05:52,0.00,0.89,36.91,0.10,1.75,0.06,,,-35
1589860436,2020-05-19 05:53,0.00,0.84,38.64,0.10,1.40,0.06,,,-36
1589860496,2020-05-19 05:54,0.00,0.89,36.91,0.10,1.75,0.06,,,-36
1589860557,2020-05-19 05:55,0.00,0.89,35.33,0.16,1.75,0.06,,,-35
1589860617,2020-05-19 05:56,0.00,0.89,36.91,0.10,1.75,0.06,,,-36
1589860677,2020-05-19 05:57,0.00,0.89,36.91,0.10,1.75,0.06,,,-36
1589860737,2020-05-19 05:58,0.00,0.89,36.91,0.10,1.75,0.06,,,-36
1589860797,2020-05-19 05:59,0.00,0.84,40.53,0.10,1.40,0.06,,,-36
1589860857,2020-05-19 06:00,0.00,0.79,40.53,0.16,1.10,0.05,,,-35
1589860917,2020-05-19 06:01,0.00,0.89,36.91,0.10,1.75,0.06,,,-36
1589860977,2020-05-19 06:02,0.00,0.84,38.64,0.10,1.40,0.06,,,-36
1589861037,2020-05-19 06:03,0.00,0.84,38.64,0.10,1.40,0.06,,,-37
1589861097,2020-05-19 06:04,0.00,0.84,38.64,0.10,1.40,0.06,,,-37
1589861157,2020-05-19 06:05,0.00,0.89,36.91,0.10,1.75,0.06,,,-36
1589861217,2020-05-19 06:06,0.00,0.95,35.33,0.10,2.18,0.07,,,-37